Miscellaneous Local Product
Issued by NWS North Platte, NE

Home | Current Version | Previous Version | Text Only | Print | Product List | Glossary On
Versions: 1 2 3 4 5 6 7 8 9 10 11 12 13 14 15 16 17 18 19 20 21 22 23 24 25 26 27 28 29 30 31 32 33 34 35 36 37 38 39 40 41 42 43 44 45 46 47 48 49 50
000
AXUS43 KLBF 281310
MISLBF


WESTERN AND NORTH CENTRAL NEBRASKA HOURLY WEATHER ROUNDUP
NATIONAL WEATHER SERVICE NORTH PLATTE NE
700 AM CST FRI NOV 28 2014

***STATIONS NOT REPORTING VARIABLES SUCH AS SKY/WEATHER OR
PRESSURE ARE PROVIDED BY THE NEBRASKA DEPARTMENT OF
ROADS...RAWS...AND APRS NETWORKS...AND ARE NOT UNDER
NATIONAL WEATHER SERVICE QUALITY CONTROL***

...OBSERVATIONS IN AND NEAR THE EASTERN PANHANDLE OF NEBRASKA...

CITY           SKY/WX    TMP DP  RH WIND       PRES   REMARKS
PINE RIDGE     MOCLDY    30  24  78 CALM      29.75F
CHADRON        CLEAR    N/A N/A N/A W9        29.77F
ALLIANCE       PTCLDY    35  25  66 SW14      29.81F WCI  26
SIDNEY         MOCLDY    42  26  53 W16       29.88F
WHITECLAY        N/A     34  23  63 E9          N/A  WCI  27
CRESCENT LAKE    N/A     41  25  52 SW7         N/A
LISCO            N/A     44  21  40 W6          N/A
BIG SPRINGS      N/A     31  27  84 W8          N/A  WCI  24
$$

...OBSERVATIONS IN NORTH CENTRAL NEBRASKA...

CITY           SKY/WX    TMP DP  RH WIND       PRES   REMARKS
VALENTINE      CLEAR     29  26  89 SW6       29.76F WCI  23
THEDFORD       CLEAR     35  28  75 SW3       29.80F
AINSWORTH      CLEAR     33  27  80 S6        29.76F WCI  27
O`NEILL        PTCLDY    28  25  86 SW6       29.77F WCI  22
ORD            PTCLDY    19  15  84 CALM      29.81F
BROKEN BOW     PTCLDY    36  26  67 SW5       29.83F WCI  32
BROWNLEE         N/A     38  28  66 S7          N/A  WCI  33
SPRINGVIEW       N/A     23  20  89 CALM        N/A
BREWSTER         N/A     32  27  80 W3          N/A
SARGENT          N/A     19  15  85 CALM        N/A
COMSTOCK         N/A     37  28  69 W7          N/A  WCI  31
CHAMBERS         N/A     31  23  72 W6          N/A  WCI  25
EWING            N/A     24  20  84 CALM        N/A
$$

...OBSERVATIONS IN SOUTHWEST NEBRASKA AND FAR NORTHEAST COLORADO...

CITY           SKY/WX    TMP DP  RH WIND       PRES   REMARKS
WRAY           FAIR      37  25  64 W12       29.90F WCI  29
HOLYOKE        FAIR      34  28  80 W13       29.89F WCI  25
IMPERIAL       PTCLDY    33  23  66 SW9       29.89F WCI  25
OGALLALA       CLEAR     28  26  89 SW7       29.86F WCI  21
NORTH PLATTE   PTCLDY    20  19  96 NW6       29.86F WCI  12
MCCOOK         PTCLDY    32  24  72 SW9       29.89F WCI  24
LEXINGTON      PTCLDY    24  20  87 W7        29.86F WCI  15
PAXTON           N/A     28  25  88 CALM        N/A
BRADY            N/A     27  24  86 CALM        N/A
GOTHENBURG       N/A     29  23  79 W5          N/A  WCI  24
CALLAWAY         N/A     39  30  71 W10         N/A  WCI  32
$$

...NORTH PLATTE AREA...

CITY           SKY/WX    TMP DP  RH WIND       PRES   REMARKS
AIRPORT        PTCLDY    20  19  96 NW6       29.86F WCI  12
DOWNTOWN         N/A     26  23  89 CALM        N/A
$$

...SOME WEATHER OBSERVATIONS FROM AROUND THE REGION...

CITY           SKY/WX    TMP DP  RH WIND       PRES   REMARKS
DENVER         CLOUDY    47  13  25 S7        29.96F
LARAMIE        CLEAR     42  13  30 VRB3      30.02F
CHEYENNE       MOCLDY    48  14  25 W15       29.95F
SCOTTSBLUFF    PTCLDY    50  26  39 W15       29.82F
RAPID CITY     MOCLDY    43  28  55 N3        29.70R
PIERRE         CLOUDY    18  14  84 NE7       29.74S WCI   9
WINNER         FAIR      42  29  59 S9        29.73S
SIOUX FALLS    CLOUDY    19  16  88 E5        29.82F WCI  12
OMAHA          PTCLDY    28  23  81 S12       29.92F WCI  18
GRAND ISLAND   CLEAR     26  20  77 SW5       29.85F WCI  20
KANSAS CITY    CLEAR     36  25  64 S17       29.99F WCI  26
WICHITA        PTCLDY    36  26  67 S10       30.01S WCI  28
HAYS           PTCLDY    30  19  64 W6        29.91F WCI  24
LIBERAL        CLEAR     28  21  74 SW7       30.00R WCI  21
GOODLAND       CLEAR     41  21  44 W12       29.93F
$$



USA.gov is the U.S. government's official web portal to all federal, state and local government web resources and services.